• In United Kingdom
  • List of Countries
  • For 7 days
  • Water Temperature
  • Satellite Maps
  • Weather Map
  • Weather Widgets
  • user-avatar
    Login

    Hourly Weather Andora

    Today, 19 February, Monday

    Time Temperature Precipitation Wind Pressure Humidity
    00:00 0°C° 0.3 mm 1 mps 623 mmHg 90%
    01:00 0°C° 0.2 mm 1 mps 622 mmHg 91%
    02:00 0°C° 0.2 mm 1 mps 622 mmHg 91%
    03:00 0°C° 0.2 mm 1 mps 622 mmHg 92%
    04:00 0°C° 0.1 mm 1 mps 622 mmHg 92%
    05:00 -1°C° 0.1 mm 1 mps 622 mmHg 92%
    06:00 -1°C° 0.1 mm 1 mps 622 mmHg 92%
    07:00 0°C° 0.2 mm 1 mps 622 mmHg 90%
    08:00 +1°C° 0.2 mm 1 mps 622 mmHg 88%
    09:00 +2°C° 0.2 mm 1 mps 623 mmHg 86%
    10:00 +2°C° 0.1 mm 1 mps 623 mmHg 84%
    11:00 +2°C° 0.1 mm 2 mps 623 mmHg 83%
    12:00 +3°C° 0.1 mm 2 mps 623 mmHg 81%
    13:00 +3°C° 0.1 mm 2 mps 623 mmHg 82%
    14:00 +3°C° 0.1 mm 2 mps 623 mmHg 82%
    15:00 +2°C° 0.1 mm 3 mps 622 mmHg 82%
    16:00 +2°C° 0.1 mm 2 mps 622 mmHg 84%
    17:00 +1°C° 0.1 mm 2 mps 622 mmHg 87%
    18:00 -1°C° 0.1 mm 2 mps 621 mmHg 90%
    19:00 -1°C° 0.2 mm 2 mps 621 mmHg 90%
    20:00 -1°C° 0.2 mm 2 mps 621 mmHg 91%
    21:00 -2°C° 0.2 mm 2 mps 621 mmHg 92%
    22:00 -2°C° 0.5 mm 2 mps 621 mmHg 92%
    23:00 -2°C° 0.5 mm 2 mps 621 mmHg 92%

    Tomorrow, 20 February, Tuesday

    Time Temperature Precipitation Wind Pressure Humidity
    00:00 -2°C° 0.5 mm 2 mps 621 mmHg 92%
    01:00 -2°C° 0.6 mm 2 mps 621 mmHg 92%
    02:00 -2°C° 0.6 mm 2 mps 620 mmHg 92%
    03:00 -2°C° 0.6 mm 2 mps 620 mmHg 92%
    04:00 -2°C° 0.4 mm 2 mps 620 mmHg 91%
    05:00 -2°C° 0.4 mm 3 mps 620 mmHg 91%
    06:00 -2°C° 0.4 mm 3 mps 620 mmHg 90%
    07:00 -1°C° 0.3 mm 3 mps 620 mmHg 89%
    08:00 -1°C° 0.3 mm 3 mps 621 mmHg 87%
    09:00 0°C° 0.3 mm 3 mps 621 mmHg 85%
    10:00 0°C° 0.5 mm 3 mps 621 mmHg 84%
    11:00 0°C° 0.5 mm 4 mps 621 mmHg 83%
    12:00 0°C° 0.5 mm 4 mps 621 mmHg 81%
    13:00 0°C° 0.4 mm 4 mps 621 mmHg 80%
    14:00 0°C° 0.4 mm 4 mps 620 mmHg 78%
    15:00 0°C° 0.4 mm 4 mps 620 mmHg 76%
    16:00 0°C° 0.3 mm 4 mps 620 mmHg 78%
    17:00 -1°C° 0.3 mm 4 mps 619 mmHg 80%
    18:00 -2°C° 0.3 mm 4 mps 619 mmHg 82%
    19:00 -3°C° 0.1 mm 4 mps 619 mmHg 83%
    20:00 -3°C° 0.1 mm 4 mps 619 mmHg 83%
    21:00 -3°C° 0.1 mm 4 mps 619 mmHg 84%
    22:00 -4°C° 0.2 mm 4 mps 618 mmHg 85%
    23:00 -4°C° 0.2 mm 3 mps 618 mmHg 85%

    Day after tomorrow, 21 February, Wednesday

    Time Temperature Precipitation Wind Pressure Humidity
    00:00 -4°C° 0.2 mm 3 mps 618 mmHg 86%
    01:00 -5°C° 0.2 mm 3 mps 617 mmHg 85%
    02:00 -5°C° 0.2 mm 3 mps 617 mmHg 84%
    03:00 -7°C° 0.2 mm 4 mps 616 mmHg 83%
    04:00 -7°C° 0.1 mm 4 mps 616 mmHg 82%
    05:00 -7°C° 0.1 mm 4 mps 616 mmHg 81%
    06:00 -7°C° 0.1 mm 4 mps 616 mmHg 81%
    07:00 -7°C° 0.1 mm 4 mps 616 mmHg 80%
    08:00 -5°C° 0.1 mm 4 mps 617 mmHg 79%
    09:00 -4°C° 0.1 mm 4 mps 618 mmHg 78%
    10:00 -4°C° 0 mm 4 mps 618 mmHg 73%
    11:00 -3°C° 0 mm 4 mps 618 mmHg 68%
    12:00 -2°C° 0 mm 3 mps 618 mmHg 63%
    13:00 -2°C° 0 mm 3 mps 618 mmHg 62%
    14:00 -2°C° 0 mm 3 mps 618 mmHg 61%
    15:00 -2°C° 0 mm 3 mps 617 mmHg 60%
    16:00 -5°C° 0 mm 3 mps 617 mmHg 65%
    17:00 -6°C° 0 mm 3 mps 617 mmHg 71%
    18:00 -8°C° 0 mm 3 mps 616 mmHg 76%
    19:00 -9°C° 0 mm 3 mps 616 mmHg 76%
    20:00 -10°C° 0 mm 3 mps 616 mmHg 76%
    21:00 -10°C° 0 mm 3 mps 616 mmHg 75%
    22:00 -10°C° 0 mm 3 mps 616 mmHg 75%
    23:00 -10°C° 0 mm 3 mps 615 mmHg 75%

    22 February, Thursday

    Time Temperature Precipitation Wind Pressure Humidity
    00:00 -10°C° 0 mm 3 mps 615 mmHg 75%
    01:00 -10°C° 0 mm 3 mps 615 mmHg 76%
    02:00 -10°C° 0 mm 3 mps 614 mmHg 76%
    03:00 -10°C° 0 mm 3 mps 614 mmHg 76%
    04:00 -10°C° 0 mm 3 mps 613 mmHg 76%
    05:00 -12°C° 0 mm 3 mps 613 mmHg 76%
    06:00 -12°C° 0 mm 3 mps 613 mmHg 76%
    07:00 -10°C° 0 mm 3 mps 613 mmHg 73%
    08:00 -9°C° 0 mm 3 mps 613 mmHg 70%
    09:00 -8°C° 0 mm 3 mps 614 mmHg 66%
    10:00 -7°C° 0 mm 3 mps 614 mmHg 63%
    11:00 -6°C° 0 mm 3 mps 614 mmHg 59%
    12:00 -5°C° 0 mm 3 mps 614 mmHg 56%
    13:00 -5°C° 0 mm 3 mps 613 mmHg 58%
    14:00 -5°C° 0 mm 3 mps 613 mmHg 60%
    15:00 -6°C° 0 mm 3 mps 613 mmHg 62%
    16:00 -7°C° 0.1 mm 3 mps 612 mmHg 67%
    17:00 -8°C° 0.1 mm 3 mps 612 mmHg 72%
    18:00 -8°C° 0.1 mm 2 mps 612 mmHg 77%
    19:00 -9°C° 0.1 mm 2 mps 612 mmHg 78%
    20:00 -9°C° 0.1 mm 2 mps 612 mmHg 78%
    21:00 -9°C° 0.1 mm 2 mps 613 mmHg 78%
    22:00 -9°C° 0.1 mm 2 mps 613 mmHg 78%
    23:00 -9°C° 0.1 mm 2 mps 613 mmHg 78%

    23 February, Friday

    Time Temperature Precipitation Wind Pressure Humidity
    00:00 -9°C° 0.1 mm 2 mps 613 mmHg 78%
    01:00 -9°C° 0 mm 2 mps 612 mmHg 78%
    02:00 -9°C° 0 mm 2 mps 612 mmHg 78%
    03:00 -10°C° 0 mm 2 mps 612 mmHg 78%
    04:00 -10°C° 0 mm 2 mps 612 mmHg 78%
    05:00 -10°C° 0 mm 2 mps 612 mmHg 78%
    06:00 -10°C° 0 mm 2 mps 612 mmHg 78%
    07:00 -8°C° 0 mm 2 mps 613 mmHg 73%
    08:00 -4°C° 0 mm 1 mps 614 mmHg 69%
    09:00 -3°C° 0 mm 1 mps 615 mmHg 64%
    10:00 -1°C° 0 mm 1 mps 615 mmHg 62%
    11:00 0°C° 0 mm 1 mps 616 mmHg 59%
    12:00 -1°C° 0 mm 2 mps 616 mmHg 57%
    13:00 -1°C° 0.1 mm 2 mps 616 mmHg 59%
    14:00 -1°C° 0.1 mm 2 mps 615 mmHg 60%
    15:00 -1°C° 0.1 mm 2 mps 615 mmHg 62%
    16:00 -3°C° 0.1 mm 2 mps 615 mmHg 69%
    17:00 -2°C° 0.1 mm 1 mps 615 mmHg 76%
    18:00 -4°C° 0.1 mm 1 mps 614 mmHg 83%
    19:00 -6°C° 0 mm 1 mps 614 mmHg 84%
    20:00 -6°C° 0 mm 1 mps 614 mmHg 86%
    21:00 -7°C° 0 mm 1 mps 615 mmHg 87%
    22:00 -7°C° 0 mm 1 mps 615 mmHg 86%
    23:00 -8°C° 0 mm 1 mps 615 mmHg 84%

    24 February, Saturday

    Time Temperature Precipitation Wind Pressure Humidity
    00:00 -8°C° 0 mm 1 mps 615 mmHg 83%
    01:00 -8°C° 0 mm 1 mps 615 mmHg 82%
    02:00 -8°C° 0 mm 1 mps 615 mmHg 81%
    03:00 -8°C° 0 mm 1 mps 615 mmHg 81%
    04:00 -8°C° 0 mm 1 mps 615 mmHg 79%
    05:00 -8°C° 0 mm 1 mps 615 mmHg 78%
    06:00 -9°C° 0 mm 1 mps 615 mmHg 77%
    07:00 -6°C° 0 mm 1 mps 616 mmHg 72%
    08:00 -3°C° 0 mm 1 mps 617 mmHg 67%
    09:00 -1°C° 0 mm 1 mps 618 mmHg 62%
    10:00 0°C° 0 mm 1 mps 619 mmHg 59%
    11:00 +1°C° 0 mm 1 mps 619 mmHg 56%
    12:00 +1°C° 0 mm 2 mps 619 mmHg 53%
    13:00 +1°C° 0 mm 2 mps 619 mmHg 54%
    14:00 +1°C° 0 mm 2 mps 619 mmHg 56%
    15:00 +2°C° 0 mm 1 mps 618 mmHg 57%
    16:00 0°C° 0 mm 1 mps 618 mmHg 64%
    17:00 -2°C° 0 mm 1 mps 617 mmHg 71%
    18:00 -5°C° 0 mm 0 mps 616 mmHg 78%
    19:00 -6°C° 0 mm 1 mps 616 mmHg 78%
    20:00 -6°C° 0 mm 1 mps 616 mmHg 78%
    21:00 -6°C° 0 mm 1 mps 616 mmHg 78%
    22:00 -7°C° 0 mm 1 mps 616 mmHg 76%
    23:00 -7°C° 0 mm 1 mps 616 mmHg 75%
    Show more